Houston Clover, TX

8:22 AM CDT on March 24, 2017 (GMT -0500)
Clover

Weather History for KLVJ - November, 2012

Change the Weather History Date:

Monday, November 5, 2012

  Actual Average (KEFD) Record (KEFD)
Temperature  
Mean Temperature 72 °F -  
Max Temperature 84 °F 73 °F 89 °F (2005)
Min Temperature 59 °F 55 °F 44 °F (2011)
Cooling Degree Days 6    
Growing Degree Days 22 (Base 50)    
Moisture  
Dew Point 61 °F    
Average Humidity 78    
Maximum Humidity 100    
Minimum Humidity 43    
Precipitation  
Precipitation 0.15 in - - ()
Sea Level Pressure  
Sea Level Pressure 30.03 in    
Wind  
Wind Speed 1 mph (WNW)    
Max Wind Speed 15 mph    
Max Gust Speed -    
Visibility 7 miles    
Events Fog , Rain , Thunderstorm    
Averages and records for this station are not official NWS values.
T = Trace of Precipitation, MM = Missing Value Source: NWS Daily Summary

Daily Weather History Graph

Daily Weather History Graph

Search for Another Location

Airport or City:

Trip Planner

Search our weather history database for the weather conditions in past years. The results will help you decide how hot, cold, wet, or windy it might be!

Date:

Astronomy

Nov. 05, 2012 Rise Set
Actual Time 6:37 AM CST 5:31 PM CST
Civil Twilight 6:12 AM CST 5:55 PM CST
Nautical Twilight 5:44 AM CST 6:24 PM CST
Astronomical Twilight 5:16 AM CST 6:52 PM CST
Moon 11:08 PM CST (11/5) 11:56 AM CST (11/5)
Length of Visible Light 11h 43m
Length of Day
10h 53m
Waning Gibbous, 62% of the Moon is Illuminated
Nov 5
Waning Gibbous
Nov 6
Last Quarter
Nov 13
New
Nov 20
First Quarter
Nov 28
Full

Hourly Weather History & Observations

Time (CST) Temp. Heat Index Dew Point Humidity Pressure Visibility Wind Dir Wind Speed Gust Speed Precip Events Conditions
12:53 AM 63.0 °F - 60.1 °F 90% 30.06 in 9.0 mi Calm Calm - N/A   Clear
1:49 AM 62.6 °F - 57.2 °F 82% 30.05 in 10.0 mi Calm Calm - N/A   Partly Cloudy
1:53 AM 63.0 °F - 57.9 °F 84% 30.05 in 10.0 mi Calm Calm - N/A   Clear
2:10 AM 62.6 °F - 57.2 °F 82% 30.05 in 10.0 mi Calm Calm - N/A   Scattered Clouds
2:39 AM 60.8 °F - 57.2 °F 88% 30.06 in 7.0 mi Calm Calm - N/A   Mostly Cloudy
2:53 AM 61.0 °F - 57.9 °F 90% 30.05 in 5.0 mi Calm Calm - N/A   Mostly Cloudy
3:05 AM 62.6 °F - 59.0 °F 88% 30.05 in 5.0 mi Calm Calm - N/A   Scattered Clouds
3:49 AM 60.8 °F - 57.2 °F 88% 30.04 in 3.0 mi Calm Calm - N/A   Mostly Cloudy
3:53 AM 61.0 °F - 57.9 °F 90% 30.04 in 5.0 mi Calm Calm - N/A   Mostly Cloudy
4:16 AM 60.8 °F - 57.2 °F 88% 30.04 in 1.8 mi Calm Calm - N/A   Overcast
4:27 AM 59.0 °F - 57.2 °F 94% 30.04 in 0.8 mi Calm Calm - N/A   Mist
4:53 AM 61.0 °F - 59.0 °F 93% 30.04 in 0.8 mi Calm Calm - 0.01 in   Mist
5:05 AM 60.8 °F - 60.8 °F 100% 30.05 in 2.0 mi Calm Calm - N/A   Overcast
5:12 AM 62.6 °F - 60.8 °F 94% 30.05 in 0.8 mi Calm Calm - N/A   Mist
5:53 AM 63.0 °F - 62.1 °F 97% 30.05 in 0.5 mi Calm Calm - N/A Fog Fog
6:53 AM 62.1 °F - 61.0 °F 96% 30.06 in 0.2 mi Calm Calm - N/A Fog Fog
7:53 AM 64.0 °F - 63.0 °F 96% 30.06 in 0.5 mi Calm Calm - N/A Fog Fog
8:11 AM 66.2 °F - 64.4 °F 94% 30.07 in 0.5 mi Calm Calm - N/A Fog Fog
8:29 AM 66.2 °F - 64.4 °F 94% 30.07 in 2.0 mi West 3.5 mph - N/A   Clear
8:37 AM 66.2 °F - 64.4 °F 94% 30.07 in 9.0 mi West 3.5 mph - N/A   Clear
8:53 AM 72.0 °F - 64.9 °F 78% 30.07 in 10.0 mi West 3.5 mph - N/A   Clear
9:53 AM 77.0 °F - 64.9 °F 66% 30.07 in 10.0 mi WNW 6.9 mph - N/A   Clear
10:53 AM 79.0 °F - 64.0 °F 60% 30.05 in 10.0 mi NW 5.8 mph - N/A   Clear
11:53 AM 82.0 °F 83.1 °F 63.0 °F 52% 30.03 in 10.0 mi West 5.8 mph - N/A   Partly Cloudy
12:53 PM 84.0 °F 84.5 °F 62.1 °F 47% 29.99 in 10.0 mi WNW 8.1 mph - N/A   Partly Cloudy
1:53 PM 84.0 °F 84.0 °F 60.1 °F 44% 29.96 in 10.0 mi West 9.2 mph - N/A   Partly Cloudy
2:53 PM 82.9 °F 83.2 °F 60.1 °F 46% 29.94 in 10.0 mi West 4.6 mph - N/A   Clear
3:53 PM 82.0 °F 82.7 °F 61.0 °F 49% 29.93 in 10.0 mi West 3.5 mph - N/A   Clear
4:53 PM 80.1 °F 80.2 °F 55.9 °F 43% 29.93 in 10.0 mi West 3.5 mph - N/A   Clear
5:53 PM 73.9 °F - 59.0 °F 59% 29.95 in 10.0 mi SW 3.5 mph - N/A   Clear
6:53 PM 72.0 °F - 62.1 °F 71% 29.96 in 10.0 mi Calm Calm - N/A   Scattered Clouds
7:27 PM 71.6 °F - 64.4 °F 78% 30.00 in 7.0 mi North 15.0 mph - 0.04 in Rain , Thunderstorm Rain
7:53 PM 70.0 °F - 66.0 °F 87% 29.99 in 10.0 mi Calm Calm - 0.14 in Thunderstorm Overcast
8:04 PM 69.8 °F - 66.2 °F 88% 30.00 in 10.0 mi Calm Calm - N/A   Overcast
8:53 PM 72.0 °F - 64.0 °F 76% 30.02 in 10.0 mi North 3.5 mph - N/A   Mostly Cloudy
9:53 PM 71.1 °F - 60.1 °F 68% 30.03 in 10.0 mi North 5.8 mph - N/A   Overcast
10:53 PM 70.0 °F - 55.9 °F 61% 30.04 in 10.0 mi NNE 6.9 mph - N/A   Mostly Cloudy
11:53 PM 64.0 °F - 57.0 °F 78% 30.03 in 10.0 mi Calm Calm - N/A   Clear